Lacon, IL

11:39 PM CST on December 10, 2019 (GMT -0600)
Lacon

Weather History for KC75 - October, 2019

Change the Weather History Date:

Monday, October 28, 2019

  Actual Average (WUND) Record (WUND)
Temperature  
Mean Temperature 42 °F -  
Max Temperature 48 °F - - (-1)
Min Temperature 36 °F - - (-1)
Degree Days  
Heating Degree Days 23    
Moisture  
Dew Point 39 °F    
Average Humidity 83    
Maximum Humidity 99    
Minimum Humidity 71    
Precipitation  
Precipitation 0.00 in - - ()
Sea Level Pressure  
Sea Level Pressure 30.05 in    
Wind  
Wind Speed 3 mph (NNW)    
Max Wind Speed 7 mph    
Max Gust Speed -    
Visibility 10 miles    
Events      
Averages and records for this station are not official NWS values.
T = Trace of Precipitation, MM = Missing Value Source: NWS Daily Summary

Daily Weather History Graph

Daily Weather History Graph

Search for Another Location

Airport or City:

Astronomy

Oct. 28, 2019 Rise Set
Actual Time 7:23 AM CDT 5:58 PM CDT
Civil Twilight 6:54 AM CDT 6:26 PM CDT
Nautical Twilight 6:22 AM CDT 6:58 PM CDT
Astronomical Twilight 5:50 AM CDT 7:30 PM CDT
Moon 7:44 AM CDT (10/28) 6:43 PM CDT (10/28)
Length of Visible Light 11h 31m
Length of Day
10h 35m
New Moon, 0% of the Moon is Illuminated
Oct 28
New Moon
Nov 4
First Quarter
Nov 12
Full
Nov 19
Last Quarter
Nov 26
New

Hourly Weather History & Observations

Time (CDT) Temp. Windchill Dew Point Humidity Pressure Visibility Wind Dir Wind Speed Gust Speed Precip Events Conditions
12:15 AM 42.4 °F 40.7 °F 42.1 °F 99% 30.02 in 10.0 mi NNW 3.5 mph - N/A   Clear
12:35 AM 43.9 °F 40.5 °F 40.8 °F 89% 30.03 in 10.0 mi NW 5.8 mph - N/A   Clear
12:55 AM 43.2 °F 39.7 °F 40.1 °F 89% 30.04 in 10.0 mi NW 5.8 mph - N/A   Scattered Clouds
1:15 AM 42.8 °F 41.1 °F 39.4 °F 88% 30.04 in 10.0 mi NW 3.5 mph - N/A   Mostly Cloudy
1:35 AM 43.0 °F 40.3 °F 39.4 °F 87% 30.04 in 10.0 mi NNW 4.6 mph - N/A   Overcast
1:55 AM 43.0 °F 39.5 °F 39.6 °F 88% 30.04 in 10.0 mi NNW 5.8 mph - N/A   Overcast
2:15 AM 43.3 °F 41.7 °F 39.6 °F 87% 30.04 in 10.0 mi North 3.5 mph - N/A   Overcast
2:30 AM 43.3 °F - 39.6 °F 87% 30.04 in 10.0 mi Calm Calm - N/A   Overcast
2:55 AM 43.7 °F - 39.4 °F 85% 30.03 in 10.0 mi Calm Calm - N/A   Overcast
3:15 AM 43.5 °F - 39.6 °F 86% 30.03 in 10.0 mi Calm Calm - N/A   Overcast
3:35 AM 42.1 °F 40.2 °F 39.0 °F 89% 30.04 in 10.0 mi NNW 3.5 mph - N/A   Scattered Clouds
3:55 AM 41.2 °F - 38.7 °F 91% 30.03 in 10.0 mi Calm Calm - N/A   Clear
4:15 AM 40.5 °F - 37.9 °F 91% 30.03 in 10.0 mi Calm Calm - N/A   Clear
4:30 AM 37.9 °F - 36.1 °F 93% 30.03 in 10.0 mi Calm Calm - N/A   Clear
4:55 AM 37.9 °F - 36.9 °F 96% 30.03 in 10.0 mi Calm Calm - N/A   Clear
5:15 AM 36.9 °F - 36.0 °F 97% 30.03 in 10.0 mi Calm Calm - N/A   Clear
5:35 AM 36.5 °F - 35.6 °F 97% 30.05 in 10.0 mi Calm Calm - N/A   Scattered Clouds
5:55 AM 37.4 °F - 36.9 °F 98% 30.06 in 7.0 mi Calm Calm - N/A   Mostly Cloudy
6:15 AM 38.7 °F - 38.3 °F 99% 30.06 in 10.0 mi Calm Calm - N/A   Overcast
6:35 AM 39.4 °F - 38.8 °F 98% 30.06 in 7.0 mi Calm Calm - N/A   Overcast
6:55 AM 40.1 °F - 39.4 °F 97% 30.07 in 10.0 mi Calm Calm - N/A   Overcast
7:15 AM 41.0 °F - 39.6 °F 95% 30.06 in 10.0 mi Calm Calm - N/A   Overcast
7:35 AM 41.4 °F - 39.4 °F 93% 30.07 in 10.0 mi Calm Calm - N/A   Overcast
7:55 AM 41.9 °F - 39.4 °F 91% 30.07 in 10.0 mi Calm Calm - N/A   Overcast
8:15 AM 42.1 °F 40.2 °F 39.4 °F 90% 30.08 in 10.0 mi NNW 3.5 mph - N/A   Overcast
8:35 AM 42.8 °F - 39.4 °F 88% 30.08 in 10.0 mi Calm Calm - N/A   Overcast
8:55 AM 43.0 °F 39.5 °F 39.2 °F 86% 30.08 in 10.0 mi NNW 5.8 mph - N/A   Overcast
9:15 AM 43.3 °F 40.7 °F 39.2 °F 85% 30.08 in 10.0 mi NNW 4.6 mph - N/A   Overcast
9:35 AM 43.9 °F 40.5 °F 39.4 °F 84% 30.09 in 10.0 mi NNW 5.8 mph - N/A   Overcast
9:55 AM 44.2 °F 41.0 °F 39.0 °F 82% 30.08 in 10.0 mi NNW 5.8 mph - N/A   Overcast
10:15 AM 44.6 °F 40.7 °F 38.3 °F 79% 30.08 in 10.0 mi North 6.9 mph - N/A   Overcast
10:35 AM 45.0 °F 41.8 °F 38.3 °F 77% 30.08 in 10.0 mi NNW 5.8 mph - N/A   Overcast
10:55 AM 45.5 °F 41.8 °F 38.7 °F 77% 30.08 in 10.0 mi NNW 6.9 mph - N/A   Overcast
11:15 AM 45.7 °F 42.7 °F 39.0 °F 78% 30.08 in 10.0 mi NW 5.8 mph - N/A   Overcast
11:35 AM 46.2 °F 44.1 °F 39.0 °F 76% 30.08 in 10.0 mi NW 4.6 mph - N/A   Overcast
11:55 AM 46.8 °F - 39.4 °F 75% 30.08 in 10.0 mi Calm Calm - N/A   Overcast
12:15 PM 47.1 °F - 39.2 °F 74% 30.08 in 10.0 mi NW 4.6 mph - N/A   Overcast
12:35 PM 47.5 °F - 39.4 °F 73% 30.07 in 10.0 mi NNW 3.5 mph - N/A   Overcast
12:55 PM 47.5 °F - 39.4 °F 73% 30.07 in 10.0 mi Calm Calm - N/A   Overcast
1:10 PM 47.7 °F - 39.0 °F 72% 30.07 in 10.0 mi WNW 4.6 mph - N/A   Overcast
1:35 PM 47.7 °F - 39.4 °F 73% 30.06 in 10.0 mi NNW 4.6 mph - N/A   Overcast
1:55 PM 47.3 °F - 38.8 °F 72% 30.06 in 10.0 mi WNW 4.6 mph - N/A   Overcast
2:35 PM 47.5 °F - 38.7 °F 71% 30.05 in 10.0 mi NNW 3.5 mph - N/A   Overcast
2:55 PM 47.5 °F - 38.5 °F 71% 30.05 in 10.0 mi NNE 3.5 mph - N/A   Overcast
3:15 PM 48.2 °F - 39.2 °F 71% 30.05 in 10.0 mi North 3.5 mph - N/A   Overcast
3:35 PM 47.3 °F - 38.7 °F 72% 30.05 in 10.0 mi North 4.6 mph - N/A   Overcast
3:55 PM 47.1 °F - 38.5 °F 72% 30.06 in 10.0 mi NNW 4.6 mph - N/A   Overcast
4:15 PM 46.8 °F - 38.1 °F 72% 30.06 in 10.0 mi NNW 4.6 mph - N/A   Overcast
4:35 PM 46.6 °F - 38.1 °F 72% 30.05 in 10.0 mi NNW 4.6 mph - N/A   Overcast
4:55 PM 46.4 °F - 37.9 °F 72% 30.06 in 10.0 mi Calm Calm - N/A   Overcast
5:15 PM 46.4 °F 45.2 °F 37.9 °F 72% 30.05 in 10.0 mi North 3.5 mph - N/A   Overcast
5:35 PM 46.0 °F - 38.3 °F 74% 30.05 in 10.0 mi Calm Calm - N/A   Overcast
5:55 PM 45.9 °F - 38.3 °F 75% 30.05 in 10.0 mi Calm Calm - N/A   Overcast
6:15 PM 45.5 °F - 38.5 °F 76% 30.05 in 10.0 mi Calm Calm - N/A   Overcast
6:35 PM 45.5 °F - 38.5 °F 76% 30.06 in 10.0 mi Calm Calm - N/A   Overcast
6:55 PM 45.5 °F - 38.5 °F 76% 30.06 in 10.0 mi Calm Calm - N/A   Overcast
7:10 PM 45.0 °F 43.5 °F 38.3 °F 77% 30.06 in 10.0 mi North 3.5 mph - N/A   Overcast
7:35 PM 44.1 °F - 37.6 °F 78% 30.03 in 10.0 mi Calm Calm - N/A   Overcast
7:55 PM 43.3 °F - 37.6 °F 80% 30.03 in 10.0 mi Calm Calm - N/A   Overcast
8:15 PM 42.8 °F - 37.8 °F 82% 30.01 in 10.0 mi Calm Calm - N/A   Overcast
8:55 PM 43.7 °F 41.1 °F 38.8 °F 83% 30.01 in 10.0 mi East 4.6 mph - N/A   Overcast
9:15 PM 43.7 °F 42.1 °F 38.5 °F 82% 30.03 in 10.0 mi NNW 3.5 mph - N/A   Overcast
9:35 PM 43.7 °F - 39.2 °F 84% 30.02 in 10.0 mi Calm Calm - N/A   Overcast
9:55 PM 43.7 °F 42.1 °F 38.7 °F 82% 30.02 in 10.0 mi North 3.5 mph - N/A   Overcast
10:15 PM 43.9 °F - 39.4 °F 84% 30.00 in 10.0 mi Calm Calm - N/A   Overcast
10:55 PM 43.5 °F 40.9 °F 39.4 °F 85% 30.00 in 10.0 mi NNW 4.6 mph - N/A   Overcast
11:15 PM 43.3 °F 39.2 °F 38.7 °F 84% 30.01 in 10.0 mi NNW 6.9 mph - N/A   Overcast
11:35 PM 43.2 °F 39.0 °F 37.9 °F 82% 30.01 in 10.0 mi NNW 6.9 mph - N/A   Overcast
11:55 PM 43.0 °F 39.5 °F 37.9 °F 82% 30.02 in 10.0 mi NNW 5.8 mph - N/A   Overcast